Weather reports worldwide

Advertisment
La Roda de Andalucia, Spain (8399): temperature & dewpoint: 17.10.2019 06:00:00 - 23.10.2019 06:00:00 (CEST)La Roda de Andalucia, Spain (8399): wind speed & gusts: 17.10.2019 06:00:00 - 23.10.2019 06:00:00 (CEST)La Roda de Andalucia, Spain (8399): wind direction: 17.10.2019 06:00:00 - 23.10.2019 06:00:00 (CEST)La Roda de Andalucia, Spain (8399): reduced air pressure: 17.10.2019 06:00:00 - 23.10.2019 06:00:00 (CEST)La Roda de Andalucia, Spain (8399): visibility: 17.10.2019 06:00:00 - 23.10.2019 06:00:00 (CEST)La Roda de Andalucia, Spain (8399): sunshine duration: 17.10.2019 06:00:00 - 23.10.2019 06:00:00 (CEST)La Roda de Andalucia, Spain (8399): precipitation: 17.10.2019 06:00:00 - 23.10.2019 06:00:00 (CEST)
Date & Time tt [°C] td [°C] ff [km/h] ff [kn] fx [km/h] fx [kn] dd ppp [hPa] vv [km] sd [min] rr [mm]
23.10.2019 06:00:00 - - - - - - - - - - -
23.10.2019 05:00:00 - - - - - - - - - - -
23.10.2019 04:00:00 10,5 6,4 10 6 22 12 SW 1010,2 20 0 0,0
23.10.2019 03:00:00 11,3 7,3 10 5 19 10 SW 1010,1 20 0 0,0
23.10.2019 02:00:00 10,2 6,4 4 2 12 6 SSW 1010,6 20 0 -
23.10.2019 01:00:00 10,1 6,2 8 4 13 7 S 1010,8 20 0 0,0
23.10.2019 00:00:00 10,5 5,6 3 1 22 12 WSW 1010,9 20 0 0,0
22.10.2019 23:00:00 11,0 5,3 5 3 16 9 SW 1011,5 20 0 0,0
22.10.2019 22:00:00 - - - - - - - - - - -
22.10.2019 21:00:00 12,2 5,0 8 4 24 13 W 1010,2 20 0 0,0
22.10.2019 20:00:00 13,4 5,0 14 7 28 15 W 1009,6 20 0 -
22.10.2019 19:00:00 14,9 5,9 13 7 27 15 WSW 1008,5 20 34 0,0
22.10.2019 18:00:00 15,6 6,1 14 8 27 14 W 1008,0 20 48 0,0
22.10.2019 17:00:00 16,6 5,8 13 7 30 16 SW 1008,1 20 51 0,0
22.10.2019 16:00:00 18,8 3,4 13 7 23 12 W 1007,9 20 50 0,0
22.10.2019 15:00:00 17,8 2,9 13 7 22 12 NNW 1008,5 20 57 0,0
22.10.2019 14:00:00 17,6 3,0 13 7 23 12 N 1009,3 20 60 -
22.10.2019 13:00:00 16,5 4,8 11 6 17 9 N 1010,5 20 60 0,0
22.10.2019 12:00:00 15,4 5,0 6 3 12 6 N 1011,0 20 60 0,0
22.10.2019 11:00:00 - - - - - - - - - - -
22.10.2019 10:00:00 9,3 7,4 9 5 16 9 S 1012,5 20 20 0,0
22.10.2019 09:00:00 7,6 6,2 7 4 12 7 S 1012,2 15 0 0,0
22.10.2019 08:00:00 7,5 5,9 7 4 11 6 S 1012,7 11 0 -
22.10.2019 07:00:00 7,5 5,5 6 4 9 5 S 1012,9 10 0 0,0
22.10.2019 06:00:00 - - - - - - - - - - -
22.10.2019 05:00:00 9,2 6,8 2 1 11 6 SW 1012,9 20 0 0,0
22.10.2019 04:00:00 9,8 7,0 7 4 11 6 S 1013,6 20 0 0,0
22.10.2019 03:00:00 10,4 7,1 2 1 9 5 SSW 1014,4 20 0 0,0
22.10.2019 02:00:00 9,6 7,4 5 3 8 4 S 1015,0 20 0 -
22.10.2019 01:00:00 9,7 7,1 3 1 7 4 S 1015,0 20 0 0,0
22.10.2019 00:00:00 10,1 7,3 3 2 8 4 SSW 1015,6 20 0 0,0
21.10.2019 23:00:00 10,1 7,3 5 3 7 4 S 1015,8 20 0 0,0
21.10.2019 22:00:00 10,5 7,6 6 4 9 5 S 1015,8 20 0 0,0
21.10.2019 21:00:00 12,0 8,1 3 2 6 4 S 1015,6 20 0 0,0
21.10.2019 20:00:00 14,5 8,4 2 1 10 5 S 1014,7 20 0 -
21.10.2019 19:00:00 16,6 5,5 7 4 13 7 NNW 1014,2 20 1 0,0
21.10.2019 18:00:00 17,3 4,3 6 3 13 7 NNW 1014,0 20 21 0,0
21.10.2019 17:00:00 - - - - - - - - - - -
21.10.2019 16:00:00 19,1 4,1 3 2 14 7 N 1014,2 20 42 0,0
21.10.2019 15:00:00 17,9 5,1 9 5 22 12 N 1014,9 20 51 0,0
21.10.2019 14:00:00 18,4 4,5 5 3 12 7 NNE 1015,5 20 60 -
21.10.2019 13:00:00 17,6 5,1 5 3 12 6 WNW 1016,2 20 60 0,0
21.10.2019 12:00:00 16,4 7,0 3 1 8 4 ESE 1016,6 20 60 0,0
21.10.2019 11:00:00 13,7 7,8 3 1 8 4 S 1017,1 20 60 0,0
21.10.2019 10:00:00 10,4 8,0 4 2 11 6 S 1017,4 20 30 0,0
21.10.2019 09:00:00 7,6 6,1 3 1 13 7 SE 1017,4 15 0 0,0
21.10.2019 08:00:00 7,9 6,2 7 4 12 6 S 1017,0 20 0 -
21.10.2019 07:00:00 8,3 6,4 3 2 9 5 SE 1016,8 20 0 0,0
21.10.2019 06:00:00 8,8 6,7 7 4 13 7 S 1016,6 10 0 0,0
21.10.2019 05:00:00 8,9 6,7 8 4 13 7 S 1016,5 20 0 0,0
21.10.2019 04:00:00 8,8 6,7 6 3 12 6 S 1016,9 20 0 0,0
21.10.2019 03:00:00 9,3 6,8 6 3 9 5 S 1016,9 20 0 0,0
21.10.2019 02:00:00 10,4 7,1 5 3 16 9 SE 1016,7 20 0 -
21.10.2019 01:00:00 11,8 7,3 9 5 16 8 SW 1016,2 20 0 0,0
21.10.2019 00:00:00 11,5 7,0 4 2 14 7 WSW 1016,6 20 0 0,0
20.10.2019 23:00:00 10,4 7,4 7 4 15 8 SW 1016,5 20 0 0,0
20.10.2019 22:00:00 10,7 6,8 3 2 - - S 1015,8 20 - -
20.10.2019 21:00:00 - - - - - - - - - - -
20.10.2019 20:00:00 - - - - - - - - - - -
20.10.2019 19:00:00 - - - - - - - - - - -
20.10.2019 18:00:00 - - - - - - - - - - -
20.10.2019 17:00:00 17,1 4,8 18 10 29 16 WNW 1013,2 20 52 0,0
20.10.2019 16:00:00 18,0 6,2 14 8 29 16 W 1012,7 20 59 0,0
20.10.2019 15:00:00 - - - - - - - - - - -
20.10.2019 14:00:00 16,9 7,3 14 7 27 15 W 1012,9 20 55 -
20.10.2019 13:00:00 16,6 8,8 14 8 29 15 WSW 1012,9 20 54 0,0
20.10.2019 12:00:00 15,3 8,1 14 7 27 14 WSW 1013,0 20 55 0,0
20.10.2019 11:00:00 14,1 8,7 15 8 26 14 W 1012,9 20 60 0,0
20.10.2019 10:00:00 12,7 9,2 10 5 17 9 W 1012,3 20 30 0,0
20.10.2019 09:00:00 11,9 9,3 8 5 16 8 W 1012,0 20 0 0,0
20.10.2019 08:00:00 11,8 9,2 6 4 13 7 SW 1011,6 20 0 -
20.10.2019 07:00:00 12,1 9,2 6 3 16 9 W 1010,6 20 0 0,0
20.10.2019 06:00:00 12,8 10,3 6 3 14 8 WSW 1009,9 20 0 0,0
20.10.2019 05:00:00 13,3 10,9 5 3 21 11 SW 1010,6 20 0 0,2
20.10.2019 04:00:00 13,8 10,8 5 3 14 8 SSW 1010,1 20 0 0,0
20.10.2019 03:00:00 14,1 11,6 6 4 24 13 WSW 1010,0 20 0 0,0
20.10.2019 02:00:00 - - - - - - - - - - -
20.10.2019 01:00:00 14,2 12,4 12 7 41 22 WSW 1009,3 6 0 7,4
20.10.2019 00:00:00 16,7 14,7 12 7 27 14 SW 1008,5 10 0 2,6
19.10.2019 23:00:00 17,8 14,3 8 5 33 18 WSW 1008,1 17 0 0,8
19.10.2019 22:00:00 19,6 12,1 17 9 34 19 SSW 1007,2 20 0 0,0
19.10.2019 21:00:00 20,0 12,2 14 8 33 18 SSW 1007,7 20 0 0,0
19.10.2019 20:00:00 20,6 11,8 17 9 36 20 SSW 1007,7 20 0 -
19.10.2019 19:00:00 21,6 11,0 16 9 27 15 SSW 1007,5 20 5 0,0
19.10.2019 18:00:00 22,3 11,1 15 8 32 18 SSW 1007,8 20 22 0,0
19.10.2019 17:00:00 22,7 10,8 18 10 32 18 SW 1008,3 20 36 0,0
19.10.2019 16:00:00 22,7 10,2 13 7 31 17 SW 1009,1 20 1 0,0
19.10.2019 15:00:00 22,6 9,7 18 10 32 17 W 1009,8 20 20 0,0
19.10.2019 14:00:00 - - - - - - - - - - -
19.10.2019 13:00:00 - - - - - - - - - - -
19.10.2019 12:00:00 - - - - - - - - - - -
19.10.2019 11:00:00 18,8 13,3 8 4 17 9 S 1012,7 20 19 0,0
19.10.2019 10:00:00 17,0 13,8 9 5 15 8 S 1012,9 20 26 0,0
19.10.2019 09:00:00 14,6 12,6 5 3 9 5 S 1013,5 20 0 0,0
19.10.2019 08:00:00 14,2 12,4 5 3 8 4 S 1013,3 20 0 -
19.10.2019 07:00:00 - - - - - - - - - - -
19.10.2019 06:00:00 13,4 11,4 4 2 7 4 S 1013,8 20 0 0,0
19.10.2019 05:00:00 14,6 12,6 5 3 7 4 S 1013,7 18 0 0,0
19.10.2019 04:00:00 15,0 12,8 4 2 6 3 S 1014,2 20 0 0,0
19.10.2019 03:00:00 - - - - - - - - - - -
19.10.2019 02:00:00 15,7 13,2 4 2 9 5 S 1015,2 13 0 -
19.10.2019 01:00:00 16,9 14,1 3 2 24 13 SE 1015,6 20 0 0,0
19.10.2019 00:00:00 17,6 14,7 10 5 19 10 WSW 1015,9 20 0 0,0
18.10.2019 23:00:00 17,9 14,4 6 3 20 11 W 1015,8 8 0 0,0
18.10.2019 22:00:00 18,0 14,3 8 5 16 9 WSW 1015,5 6 0 0,0
18.10.2019 21:00:00 18,4 11,4 2 1 7 4 SW 1015,6 20 0 0,0
18.10.2019 20:00:00 21,2 12,3 6 4 17 9 WNW 1014,7 20 18 -
18.10.2019 19:00:00 - - - - - - - - - - -
18.10.2019 18:00:00 24,5 12,1 11 6 - - WNW 1014,7 20 60 0,0
18.10.2019 17:00:00 24,9 12,1 11 6 23 12 WNW 1014,9 20 60 0,0
18.10.2019 16:00:00 24,6 12,5 10 5 23 13 WNW 1015,4 20 60 0,0
18.10.2019 15:00:00 24,8 12,4 11 6 21 11 W 1016,2 20 60 0,0
18.10.2019 14:00:00 24,3 12,2 12 6 21 11 W 1017,0 20 60 -
18.10.2019 13:00:00 23,0 12,3 8 4 18 10 NW 1018,0 20 60 0,0
18.10.2019 12:00:00 21,5 12,1 4 2 11 6 W 1018,5 20 60 0,0
18.10.2019 11:00:00 19,1 9,3 6 4 11 6 S 1018,9 19 60 0,0
18.10.2019 10:00:00 15,3 6,2 6 3 11 6 S 1019,3 20 24 0,0
18.10.2019 09:00:00 - - - - - - - - - - -
18.10.2019 08:00:00 11,6 4,6 8 5 10 6 S 1019,1 20 0 -
18.10.2019 07:00:00 11,7 4,8 7 4 10 6 S 1019,2 19 0 0,0
18.10.2019 06:00:00 12,4 4,3 7 4 14 8 S 1018,9 20 0 0,0
18.10.2019 05:00:00 12,7 5,3 11 6 16 9 S 1019,2 14 0 0,0
18.10.2019 04:00:00 13,0 7,7 8 4 12 7 S 1019,6 12 0 0,0
18.10.2019 03:00:00 - - - - - - - - - - -
18.10.2019 02:00:00 13,8 5,9 7 4 13 7 S 1020,0 13 0 -
18.10.2019 01:00:00 15,4 9,3 6 4 15 8 WSW 1019,8 13 0 0,0
18.10.2019 00:00:00 16,0 8,7 10 5 17 9 WSW 1020,0 12 0 0,0
17.10.2019 23:00:00 16,1 6,2 4 2 14 8 W 1019,7 13 0 0,0
17.10.2019 22:00:00 16,3 3,8 8 4 13 7 W 1019,4 20 0 0,0
17.10.2019 21:00:00 16,1 2,1 4 2 7 4 SSW 1018,9 20 0 0,0
17.10.2019 20:00:00 19,4 2,3 4 2 13 7 SW 1018,0 20 21 -
17.10.2019 19:00:00 22,4 1,5 9 5 18 10 NNW 1017,1 20 60 0,0
17.10.2019 18:00:00 23,7 0,6 9 5 16 9 NNW 1016,8 20 56 0,0
17.10.2019 17:00:00 24,3 1,9 4 2 17 9 NE 1016,8 20 60 0,0
17.10.2019 16:00:00 22,9 1,9 8 4 23 12 NNW 1017,6 20 60 0,0
17.10.2019 15:00:00 22,5 2,5 7 4 17 9 NNE 1018,3 20 60 0,0
17.10.2019 14:00:00 - - - - - - - - - - -
17.10.2019 13:00:00 20,9 3,9 3 2 9 5 WSW 1019,8 20 60 0,0
17.10.2019 12:00:00 19,2 4,1 3 2 8 5 SW 1020,3 20 60 0,0
17.10.2019 11:00:00 15,4 4,5 4 2 7 4 N 1021,0 20 60 0,0
17.10.2019 10:00:00 12,7 2,9 2 1 10 5 W 1021,0 20 22 0,0
17.10.2019 09:00:00 7,9 1,3 9 5 12 7 S 1020,9 20 0 0,0
17.10.2019 08:00:00 8,5 0,9 8 5 13 7 S 1020,3 20 0 -
17.10.2019 07:00:00 7,5 0,9 6 3 10 5 S 1019,9 20 0 0,0
17.10.2019 06:00:00 8,9 1,1 8 4 14 7 S 1019,3 20 0 0,0

tt = temperature
td = dewpoint
ff = wind speed
fx = gusts
dd = wind direction
ppp = reduced air pressure
vv = visibility
sd = sunshine duration
rr = precipitation

Next stations